Home   Weather   Walvis Bay   Past weeks

Flag for Namibia Past Weather in Walvis Bay, Namibia — Yesterday and Last 2 Weeks

Now
55 °F

Cool.


Feels Like: 54 °F
Forecast: 57 / 70 °F
Wind: 7 mph from Northeast

Location: Walvis Bay

Current Time: Oct 1, 2016 at 12:08:12 AM

Latest Report: Sep 30, 2016 at 11:00 PM


Visibility: N/A

Pressure: 29.95 "Hg

Humidity: 77%

Dew Point: 48 °F

Location of Walvis BayLocation

Past Weather in Walvis Bay — Graph

°F

Walvis Bay Temperature Yesterday

Maximum temperature yesterday: 73 °F (at 4:00 PM)
Minimum temperature yesterday: 48 °F (at 5:00 AM)
Average temperature yesterday: 59 °F

High & Low Weather Summary for the Past Weeks

 TemperatureHumidityPressure
High97 °F (Sep 19, 3:00 PM)100% (Sep 21, 2:00 AM)30.21 "Hg (Sep 21, 2:00 AM)
Low45 °F (Sep 17, 7:00 AM)6% (Sep 19, 4:00 PM)29.86 "Hg (Sep 19, 5:00 PM)
Average61 °F67%30.03 "Hg
* Reported Sep 15 11:00 PM — Sep 30 11:00 PM, Walvis Bay, Weather by CustomWeather, © 2016

Note: Actual official high and low records may vary slightly from our data, if they occured in-between our weather recording intervals... More about our weather records

Advertising

Walvis Bay Weather History for the Previous 24 Hours

Scroll right to see more
 ConditionsComfort  
Time TempWeatherWind HumidityBarometerVisibility
11:00 PM
Fri, Sep 30
55 °FCool.7 mph77%29.95 "HgN/A
10:00 PM55 °FCool.5 mph77%29.95 "HgN/A
9:00 PM57 °FCool.5 mph77%29.95 "HgN/A
8:00 PM59 °FCool.6 mph72%29.92 "HgN/A
7:00 PM63 °FMild.8 mph64%29.92 "HgN/A
6:00 PM68 °FSunny.12 mph56%29.86 "Hg10 mi
5:00 PM70 °FMild.9 mph46%29.92 "HgN/A
4:00 PM73 °FMild.7 mph41%29.92 "HgN/A
3:00 PM72 °FSunny.7 mph50%29.89 "Hg10 mi
2:00 PM68 °FSunny.9 mph60%29.92 "Hg10 mi
12:00 PM63 °FSunny.10 mph73%29.98 "Hg10 mi
10:00 AM54 °FLow clouds.No wind94%30.01 "HgN/A
6:00 AM50 °FCool.6 mph94%30.01 "HgN/A
5:00 AM48 °FCool.7 mph100%29.98 "HgN/A
4:00 AM50 °FCool.13 mph94%29.98 "HgN/A
3:00 AM52 °FCool.9 mph94%30.01 "HgN/A
2:00 AM52 °FCool.7 mph94%30.01 "HgN/A
1:00 AM52 °FCool.5 mph88%30.04 "HgN/A
12:00 AM54 °FCool.6 mph82%30.04 "HgN/A
Weather by CustomWeather, © 2016

See weather overviewHow to use our weather pages